User: anonymous   Login
Location: Unspecified
(0.0000°N, 0.0000°E)
Time: 08:56:30
(UTC+00:00)
Language:

STARLINK-32277 - Orbit

View from above orbital plane
View from above orbital plane
View from above satellite
View from above satellite

Ground track
Ground track

The orbit is defined by the following mean orbital elements,

1 60376U          26145.48954679 +.00000000 +00000-0 +81718-4 0 00004
2 60376  53.1612 313.0428 0001164  90.1448 269.9686 15.30200242    06
Epoch (UTC): 25 May 2026 11:44:56
Eccentricity: 0.0001164
inclination: 53.1612°
perigee height: 474 km
apogee height: 476 km
right ascension of ascending node: 313.0428°
argument of perigee: 90.1448°
revolutions per day: 15.30200242
mean anomaly at epoch: 269.9686°

The dashed part of the orbit path shows where the satellite is in the earth's shadow,  

DLR